Zurück zum Katalog

FENGYUN 1C DEB

AktivPO
NORAD 30341·DEBRIS·🇨🇳 China

Gestartet May 10, 1999 von Taiyuan Satellite Launch Center

Loading…

Nächste Überflüge (nächste 24 Stunden)

TLE

AktuellSource: Space-Track

Epoche: Sep 14, 2026, 05:08 UTC

1 30341U 99025ABC 26257.21395811  .00004303  00000-0  14274-2 0  9998
2 30341  99.2100 169.2574 0049162 341.4391 174.3379 14.37690015 10354

Verfolge FENGYUN 1C DEB in Echtzeit mit AllMySat

Download on the App Store